Weather in Klyuchi

Russia / Ryazan Oblast     54°15′59″N   42°10′13″E
temp.,
°C
wind,
m/s
gust,
m/s
humid.,
%
clouds,
%
prec.,
mm/h
press.,
hPa
HPBL,
m
14 august, sun
sun1400:00+17e2367100 0.0 102140
03:00+17e2373100 0.0 102154
06:00+17e2478100 0.0 102196
09:00+23e3460100 0.0 1021502
12:00+26e3346100 0.0 10201517
15:00+26ene2347100 0.0 10201499
18:00+24e2460100 0.0 1019149
21:00+20e3763100 0.0 1020123
15 august, mon
mon1500:00+18e376762 0.0 1020126
03:00+16e387357 0.0 1020138
06:00+16e387010 0.0 1021176
09:00+23ese47465 0.0 1021583
12:00+28ese46365 0.0 10211757
15:00+29e55315 0.0 10202121
18:00+26e48385 0.0 1020411
21:00+20e412565 0.0 1021257
16 august, tue
tue1600:00+18ese3126471 0.0 1022256
03:00+16e31068100 0.0 1023180
06:00+16e31070100 0.0 1023220
09:00+23e474865 0.0 1023635
12:00+27e573887 0.0 10221790
15:00+28e573257 0.0 10202112
18:00+26ene48405 0.0 1020460
21:00+21ene413545 0.0 1020330
17 august, wed
wed1700:00+19e4135598 0.0 1020338
03:00+18e41159100 0.0 1020240
06:00+18ese3958100 0.0 1020230
09:00+24ese4643100 0.0 1020359
12:00+28e4531100 0.0 10191162
15:00+28e4533100 0.0 10191467
18:00+24ene3744100 0.0 1018226
21:00+20ene3105594 0.0 1019214
18 august, thu
thu1800:00+19e4125699 0.0 1018258
03:00+18ene3105881 0.0 1018230
06:00+17ene3106581 0.0 1018203
09:00+24ene594243 0.0 1017463
12:00+29e683064 0.0 10151513
15:00+31ene682859 0.0 10141747
18:00+25ene41047100 0.2 1015504
21:00+22ene41157100 0.2 1015374